Location: Katherine
(14.4670°S, 132.2670°E)
Time: 13:40:46
(UTC+09:30)

ISS - Visible Passes

Search period start: 11 December 2018 00:00
Search period end: 21 December 2018 00:00
Orbit: 401 x 408 km, 51.6° (Epoch: 12 December)

Date Brightness Start Highest point End Pass type
(mag) Time Alt. Az. Time Alt. Az. Time Alt. Az.
16 Dec -2.4 19:43:04 10° N 19:45:25 18° NE 19:47:47 10° ESE visible
16 Dec -0.7 21:19:44 10° W 21:21:45 15° SW 21:22:37 14° SSW visible
17 Dec -2.2 20:26:25 10° WNW 20:29:27 36° SW 20:32:31 10° SSE visible
18 Dec -3.9 19:33:58 10° NNW 19:37:12 75° NE 19:40:29 10° SE visible
19 Dec -1.6 05:25:39 10° SSW 05:28:38 30° SE 05:31:35 10° ENE visible
19 Dec -0.2 20:20:15 10° WSW 20:21:25 11° SW 20:22:35 10° SSW visible
20 Dec -0.3 04:34:36 10° SSE 04:36:17 13° SE 04:37:57 10° ESE visible
